LEMUR 2 DAISY-HARPER

导读 | 豆包AI

LEMUR 2 DAISY-HARPER是美国Spire公司研制发射的LEMUR-2系列卫星,于北京时间2018年12月27日发射入轨,属于低地球轨道星座。它搭载多类 payload,可通过GPS无线电掩星技术获取大气温压湿数据服务气象研究,同时接收船舶AIS信号、ADS-B信号实现全球船舶与航空器跟踪监测,单颗质量仅约4千克,是典型的立方星应用,助力商业遥感与海事监测服务。

基本信息
目录编号:
43889
目录名称:
LEMUR 2 DAISY-HARPER
国际标识:
2018-111P
轨道中心:
EARTH
卫星名称:
LEMUR 2 DAISY-HARPER
卫星全名:
--
卫星状态:
已陨落 最后检测时间 2025-02-25
发射日期:
2018-12-27 UTC
国别 :
美国 (US)
星等 :
--
轨道信息
数据来源 国际轨道数据
星历时间: 2025-02-20T21:59:48+0800
轨道信息已过期387天
半长轴: 6560.844km
偏心率: 0.0007864
轨道倾角: 97.574°
近地点辐角 144.578°
升交点赤经 346.433°
平近点角 215.604°
近地点: 177.549km
远地点: 187.869km
周期: 88.145分钟
每日圈数: 16.336659
详细信息
使用方式:
暂无